Regional Weather Roundup
Issued by NWS

Home | Current Version | Previous Version | Graphics & Text | Print | Product List | Glossary On
Versions: 1 2 3 4 5 6 7 8 9 10 11 12 13 14 15 16 17 18 19 20 21 22 23 24 25 26 27 28 29 30 31 32 33 34 35 36 37 38 39 40 41 42 43 44 45 46 47 48 49 50
000
ASUS43 KLOT 262300
RWRIL

ILLINOIS REGIONAL WEATHER ROUNDUP
NATIONAL WEATHER SERVICE CHICAGO/ROMEOVILLE IL
500 PM CST THU FEB 26 2015

NOTE: "FAIR" INDICATES FEW OR NO CLOUDS BELOW 12,000 FEET WITH NO
SIGNIFICANT WEATHER AND/OR OBSTRUCTIONS TO VISIBILITY.

* THESE STATIONS ARE NOT UNDER NWS QUALITY CONTROL. THEY ALSO MAY NOT
  REPORT WEATHER SUCH AS PRECIPITATION OR FOG.

ILZ001-002-007-009-015-016-024-270000-
NORTHWEST ILLINOIS

CITY           SKY/WX    TMP DP  RH WIND       PRES   REMARKS
MOLINE         FAIR      12  -3  51 NW12      30.39R WCI  -2
STERLING*      MOCLDY    12   0  57 N10       30.37R WCI  -1
$$

ILZ003-004-008-010-011-017-018-270000-
NORTH CENTRAL ILLINOIS

CITY           SKY/WX    TMP DP  RH WIND       PRES   REMARKS
ROCKFORD       CLEAR     12  -4  48 N12       30.35R WCI  -2
$$

ILZ005-006-012>014-019>023-270000-
NORTHEAST ILLINOIS

CITY           SKY/WX    TMP DP  RH WIND       PRES   REMARKS
CHICAGO-OHARE  PTCLDY    13  -2  51 NW13      30.30R WCI  -2
CHICAGO-MIDWAY PTCLDY    19   1  45 NW15      30.31R WCI   5
AURORA         CLEAR     11  -1  58 N13       30.32R WCI  -4
WAUKEGAN       CLEAR     13  -4  46 NW10      30.30R WCI   0
DUPAGE AIRPORT CLEAR     13  -1  54 NW10      30.30R WCI   0
WHEELING       CLEAR     14  -3  47 NW10      30.32R WCI   1
NORTHERLY ISL    N/A     15   1  53 N14         N/A  WCI   1
$$

LMZ740>746-270000-
SOUTHERN LAKE MICHIGAN

STATION/POSITION SKY/WX   TEMP    WIND        PRES    VSBY  WAVE
                          AIR SEA DIR/SP/G                  HT/PER
                          (F)     (DEG/KT/KT) (MB)    (MI)  (FT/S)
WAUKEGAN HARBOR            15     330/ 12/ 15   N/A
HARRISON CRIB              17     330/ 16/ 21   N/A
BURNHAM HARBOR             15     350/  8/ 17   N/A
CALUMET HARBOR             16     330/ 12/ 16 1024.6R
MICHIGAN CITY              15     350/ 17/ 22   N/A
$$

ILZ025>027-034>036-040-047-049-050-058-095>099-270000-
WEST-CENTRAL ILLINOIS

CITY           SKY/WX    TMP DP  RH WIND       PRES   REMARKS
QUINCY         CLEAR     12  -1  56 NW20      30.40R WCI  -6
$$

ILZ028>032-037-038-041>044-048-051>054-059>061-270000-
CENTRAL ILLINOIS

CITY           SKY/WX    TMP DP  RH WIND       PRES   REMARKS
DECATUR        LGT SNOW  19  13  77 N13       30.32R WCI   6
PEORIA         CLOUDY    14   5  67 NW9       30.37R WCI   2
SPRINGFIELD    LGT SNOW  19  10  68 NW14      30.35R WCI   6
TAYLORVILLE    NOT AVBL
$$

ILZ033-039-045-046-055>057-062-063-270000-
EAST-CENTRAL ILLINOIS

CITY           SKY/WX    TMP DP  RH WIND       PRES   REMARKS
CHAMPAIGN      MOCLDY    19  10  68 N12       30.29R WCI   7
MATTOON        CLOUDY    19  11  70 N16       30.29R WCI   4
$$

ILZ079-100>102-270000-
SOUTHWEST ILLINOIS

CITY           SKY/WX    TMP DP  RH WIND       PRES   REMARKS
ALTON          FLURRIES  19  10  68 NW14G20   30.36R WCI   6
BELLEVILLE     CLOUDY    21  14  73 N16G22    30.34R WCI   7
CAHOKIA*       CLOUDY    22  12  65 N14       30.36R WCI   9
SPARTA*        FLURRIES  22  15  75 N13       30.33R WCI  10
$$

ILZ064>066-069>071-074>076-080>082-084>086-088>090-092>094-270000-
SOUTH-CENTRAL ILLINOIS

CITY           SKY/WX    TMP DP  RH WIND       PRES   REMARKS
CARBONDALE     FLURRIES  24  14  65 N15G23    30.31R WCI  11
MARION         CLOUDY    27  18  69 NW10G20   30.31R WCI  17
MT. VERNON     CLOUDY    25  10  54 N5        30.30R WCI  19
$$

ILZ067-068-072-073-078-083-087-091-270000-
SOUTHEAST ILLINOIS

CITY           SKY/WX    TMP DP  RH WIND       PRES   REMARKS
LAWRENCEVILLE  MOCLDY    24  14  65 N17       30.28R WCI  11
$$

ABBREVIATIONS USED IN REMARKS
   TC - TEMPERATURE IN CELSIUS
  WCI - WIND CHILL INDEX
   HX - HEAT INDEX
  VSB - VISIBILITY
$$




USA.gov is the U.S. government's official web portal to all federal, state and local government web resources and services.